| time (UTC) | temp F | wind direction | speed knots | gust knots | rain 1hr in | rain 24hr in | rain mn in | humidity % | barometer mb |
| 20260507012545 | 43 | 12 | 6.1 | 0.0 | 0.00 | 0.00 | 0.00 | 50 | 1012.7 |
| 20260507012015 | 45 | 360 | 4.3 | 0.0 | 0.00 | 0.00 | 0.00 | 48 | 1012.7 |
| 20260507011550 | 45 | 332 | 3.5 | 0.0 | 0.00 | 0.00 | 0.00 | 47 | 1012.6 |
| 20260507011017 | 46 | 322 | 3.5 | 0.0 | 0.00 | 0.00 | 0.00 | 46 | 1012.6 |
| 20260507010537 | 46 | 337 | 6.1 | 0.0 | 0.00 | 0.00 | 0.00 | 46 | 1012.6 |
| 20260507010017 | 47 | 329 | 7.0 | 0.0 | 0.00 | 0.00 | 0.00 | 45 | 1012.5 |
| 20260507005543 | 47 | 338 | 6.1 | 0.0 | 0.00 | 0.00 | 0.00 | 44 | 1012.5 |
| 20260507005031 | 47 | 335 | 6.1 | 0.0 | 0.00 | 0.00 | 0.00 | 44 | 1012.5 |
| 20260507004553 | 48 | 325 | 6.1 | 0.0 | 0.00 | 0.00 | 0.00 | 44 | 1012.6 |
| 20260507004030 | 48 | 288 | 5.2 | 0.0 | 0.00 | 0.00 | 0.00 | 43 | 1012.6 |
| 20260507003511 | 48 | 309 | 6.1 | 0.0 | 0.00 | 0.00 | 0.00 | 43 | 1012.6 |
| 20260507003035 | 48 | 321 | 7.8 | 0.0 | 0.00 | 0.00 | 0.00 | 44 | 1012.7 |
| 20260507002517 | 48 | 267 | 7.0 | 0.0 | 0.00 | 0.00 | 0.00 | 43 | 1012.7 |
| 20260507002041 | 49 | 317 | 6.1 | 0.0 | 0.00 | 0.00 | 0.00 | 42 | 1012.7 |
| 20260507001513 | 49 | 273 | 7.0 | 0.0 | 0.00 | 0.00 | 0.00 | 41 | 1012.7 |
| 20260507001045 | 49 | 322 | 7.0 | 0.0 | 0.00 | 0.00 | 0.00 | 42 | 1012.7 |
| 20260507000507 | 49 | 262 | 7.0 | 0.0 | 0.00 | 0.00 | 0.00 | 42 | 1012.7 |
| 20260507000031 | 49 | 286 | 7.0 | 0.0 | 0.00 | 0.00 | 0.00 | 42 | 1013.0 |
| 20260506235513 | 49 | 322 | 7.0 | 0.0 | 0.00 | 0.00 | 0.00 | 45 | 1013.0 |
| 20260506235040 | 49 | 298 | 7.0 | 0.0 | 0.00 | 0.00 | 0.00 | 44 | 1013.0 |
| 20260506234521 | 48 | 289 | 7.0 | 0.0 | 0.00 | 0.00 | 0.00 | 44 | 1013.0 |
| 20260506234047 | 48 | 287 | 7.0 | 0.0 | 0.00 | 0.00 | 0.00 | 43 | 1013.0 |
| 20260506233532 | 48 | 319 | 7.8 | 0.0 | 0.00 | 0.00 | 0.00 | 44 | 1013.0 |
| 20260506233054 | 49 | 338 | 8.7 | 0.0 | 0.00 | 0.00 | 0.00 | 44 | 1013.1 |
| 20260506232534 | 48 | 311 | 7.8 | 0.0 | 0.00 | 0.00 | 0.00 | 44 | 1013.1 |
| 20260506232057 | 48 | 283 | 7.8 | 0.0 | 0.00 | 0.00 | 0.00 | 43 | 1013.1 |
| 20260506231535 | 48 | 300 | 8.7 | 0.0 | 0.00 | 0.00 | 0.00 | 43 | 1013.3 |
| 20260506231021 | 48 | 279 | 8.7 | 0.0 | 0.00 | 0.00 | 0.00 | 42 | 1013.3 |
| 20260506230541 | 48 | 276 | 7.0 | 0.0 | 0.00 | 0.00 | 0.00 | 42 | 1013.3 |
| 20260506230009 | 48 | 243 | 6.1 | 0.0 | 0.00 | 0.00 | 0.00 | 43 | 1013.3 |
| 20260506225547 | 48 | 279 | 7.8 | 0.0 | 0.00 | 0.00 | 0.00 | 43 | 1013.3 |
| 20260506225013 | 48 | 284 | 8.7 | 0.0 | 0.00 | 0.00 | 0.00 | 42 | 1013.3 |
| 20260506224539 | 48 | 299 | 7.8 | 0.0 | 0.00 | 0.00 | 0.00 | 44 | 1013.5 |
| 20260506224026 | 48 | 248 | 7.0 | 0.0 | 0.00 | 0.00 | 0.00 | 43 | 1013.5 |
| 20260506223551 | 48 | 288 | 7.8 | 0.0 | 0.00 | 0.00 | 0.00 | 43 | 1013.5 |
| 20260506223037 | 48 | 288 | 9.6 | 0.0 | 0.00 | 0.00 | 0.00 | 43 | 1013.6 |
| 20260506222503 | 48 | 323 | 9.6 | 0.0 | 0.00 | 0.00 | 0.00 | 43 | 1013.6 |
| 20260506222037 | 48 | 289 | 10.4 | 0.0 | 0.00 | 0.00 | 0.00 | 43 | 1013.6 |
| 20260506221521 | 48 | 315 | 9.6 | 0.0 | 0.00 | 0.00 | 0.00 | 44 | 1013.6 |
| 20260506221043 | 48 | 273 | 8.7 | 0.0 | 0.00 | 0.00 | 0.00 | 44 | 1013.6 |
| 20260506220519 | 48 | 313 | 8.7 | 0.0 | 0.00 | 0.00 | 0.00 | 42 | 1013.6 |
| 20260506220059 | 48 | 284 | 7.8 | 0.0 | 0.00 | 0.00 | 0.00 | 44 | 1013.8 |
| 20260506220001 | 48 | 292 | 7.0 | 0.0 | 0.00 | 0.00 | 0.00 | 44 | 1013.8 |
| 20260506215526 | 48 | 277 | 7.0 | 0.0 | 0.00 | 0.00 | 0.00 | 45 | 1013.8 |
| 20260506215007 | 48 | 274 | 9.6 | 0.0 | 0.00 | 0.00 | 0.00 | 45 | 1013.8 |
| 20260506214529 | 48 | 277 | 10.4 | 0.0 | 0.00 | 0.00 | 0.00 | 44 | 1013.8 |
| 20260506214053 | 48 | 281 | 11.3 | 0.0 | 0.00 | 0.00 | 0.00 | 45 | 1013.8 |
| 20260506213535 | 48 | 259 | 10.4 | 0.0 | 0.00 | 0.00 | 0.00 | 44 | 1013.8 |
| 20260506213057 | 48 | 277 | 8.7 | 0.0 | 0.00 | 0.00 | 0.00 | 47 | 1014.2 |
| 20260506213001 | 48 | 309 | 8.7 | 0.0 | 0.00 | 0.00 | 0.00 | 46 | 1014.2 |
| 20260506212527 | 47 | 319 | 9.6 | 0.0 | 0.00 | 0.00 | 0.00 | 45 | 1014.2 |
| 20260506212057 | 47 | 296 | 10.4 | 0.0 | 0.00 | 0.00 | 0.00 | 44 | 1014.2 |
| 20260506212007 | 47 | 274 | 10.4 | 0.0 | 0.00 | 0.00 | 0.00 | 44 | 1014.2 |
| 20260506211543 | 48 | 303 | 12.2 | 0.0 | 0.00 | 0.00 | 0.00 | 43 | 1014.0 |
| 20260506211033 | 48 | 291 | 12.2 | 0.0 | 0.00 | 0.00 | 0.00 | 45 | 1014.0 |
| 20260506210547 | 47 | 257 | 11.3 | 0.0 | 0.00 | 0.00 | 0.00 | 44 | 1014.0 |
| 20260506210013 | 47 | 276 | 9.6 | 0.0 | 0.00 | 0.00 | 0.00 | 44 | 1014.1 |
| 20260506205547 | 48 | 288 | 10.4 | 0.0 | 0.00 | 0.00 | 0.00 | 43 | 1014.1 |
| 20260506205038 | 48 | 319 | 11.3 | 0.0 | 0.00 | 0.00 | 0.00 | 46 | 1014.1 |
| 20260506204600 | 48 | 291 | 11.3 | 0.0 | 0.00 | 0.00 | 0.00 | 45 | 1014.4 |
| 20260506204501 | 48 | 257 | 11.3 | 0.0 | 0.00 | 0.00 | 0.00 | 46 | 1014.4 |
| 20260506204042 | 47 | 257 | 10.4 | 0.0 | 0.00 | 0.00 | 0.00 | 46 | 1014.4 |
| 20260506203505 | 47 | 258 | 9.6 | 0.0 | 0.00 | 0.00 | 0.00 | 45 | 1014.4 |
| 20260506203029 | 47 | 288 | 9.6 | 0.0 | 0.00 | 0.00 | 0.00 | 45 | 1014.6 |
| 20260506202511 | 48 | 266 | 9.6 | 0.0 | 0.00 | 0.00 | 0.00 | 44 | 1014.6 |
| 20260506202031 | 47 | 329 | 8.7 | 0.0 | 0.00 | 0.00 | 0.00 | 47 | 1014.6 |
| 20260506201508 | 46 | 281 | 7.8 | 0.0 | 0.00 | 0.00 | 0.00 | 47 | 1014.6 |
| 20260506201048 | 47 | 272 | 8.7 | 0.0 | 0.00 | 0.00 | 0.00 | 46 | 1014.6 |
| 20260506200512 | 47 | 305 | 8.7 | 0.0 | 0.00 | 0.00 | 0.00 | 46 | 1014.6 |
| 20260506200052 | 46 | 294 | 8.7 | 0.0 | 0.00 | 0.00 | 0.00 | 49 | 1014.7 |
| 20260506195527 | 46 | 271 | 9.6 | 0.0 | 0.00 | 0.00 | 0.00 | 48 | 1014.7 |
| 20260506195045 | 46 | 290 | 8.7 | 0.0 | 0.00 | 0.00 | 0.00 | 46 | 1014.7 |
| 20260506194539 | 46 | 300 | 8.7 | 0.0 | 0.00 | 0.00 | 0.00 | 49 | 1014.8 |
| 20260506194055 | 46 | 315 | 8.7 | 0.0 | 0.00 | 0.00 | 0.00 | 48 | 1014.8 |
| 20260506193520 | 46 | 270 | 7.8 | 0.0 | 0.00 | 0.00 | 0.00 | 48 | 1014.8 |
| 20260506193057 | 45 | 271 | 9.6 | 0.0 | 0.00 | 0.00 | 0.00 | 48 | 1014.8 |
| 20260506192526 | 45 | 283 | 11.3 | 0.0 | 0.00 | 0.00 | 0.00 | 46 | 1014.8 |
| 20260506192007 | 46 | 313 | 10.4 | 0.0 | 0.00 | 0.00 | 0.00 | 48 | 1014.8 |
| 20260506191531 | 46 | 296 | 10.4 | 0.0 | 0.00 | 0.00 | 0.00 | 47 | 1015.1 |
| 20260506191057 | 46 | 304 | 9.6 | 0.0 | 0.00 | 0.00 | 0.00 | 48 | 1015.1 |
| 20260506190541 | 46 | 290 | 10.4 | 0.0 | 0.00 | 0.00 | 0.00 | 47 | 1015.1 |
| 20260506190007 | 45 | 273 | 11.3 | 0.0 | 0.00 | 0.00 | 0.00 | 47 | 1015.2 |
| 20260506185531 | 46 | 301 | 10.4 | 0.0 | 0.00 | 0.00 | 0.00 | 48 | 1015.2 |
| 20260506185014 | 45 | 309 | 8.7 | 0.0 | 0.00 | 0.00 | 0.00 | 51 | 1015.2 |
| 20260506184553 | 45 | 307 | 7.8 | 0.0 | 0.00 | 0.00 | 0.00 | 50 | 1015.3 |
| 20260506184015 | 45 | 320 | 8.7 | 0.0 | 0.00 | 0.00 | 0.00 | 49 | 1015.3 |
| 20260506183549 | 44 | 321 | 10.4 | 0.0 | 0.00 | 0.00 | 0.00 | 50 | 1015.3 |
| 20260506183012 | 44 | 277 | 10.4 | 0.0 | 0.00 | 0.00 | 0.00 | 48 | 1015.4 |
| 20260506182536 | 44 | 310 | 12.2 | 0.0 | 0.00 | 0.00 | 0.00 | 49 | 1015.4 |
| 20260506182019 | 44 | 312 | 13.9 | 0.0 | 0.00 | 0.00 | 0.00 | 51 | 1015.4 |
| 20260506181543 | 44 | 317 | 13.0 | 0.0 | 0.00 | 0.00 | 0.00 | 53 | 1015.5 |
| 20260506181032 | 44 | 298 | 10.4 | 0.0 | 0.00 | 0.00 | 0.00 | 50 | 1015.5 |
| 20260506180545 | 44 | 315 | 10.4 | 0.0 | 0.00 | 0.00 | 0.00 | 51 | 1015.5 |
| 20260506180033 | 44 | 278 | 10.4 | 0.0 | 0.00 | 0.00 | 0.00 | 49 | 1015.7 |
| 20260506175550 | 43 | 306 | 12.2 | 0.0 | 0.00 | 0.00 | 0.00 | 50 | 1015.7 |
| 20260506175031 | 43 | 320 | 13.0 | 0.0 | 0.00 | 0.00 | 0.00 | 51 | 1015.7 |
| 20260506174513 | 43 | 314 | 12.2 | 0.0 | 0.00 | 0.00 | 0.00 | 52 | 1015.9 |
| 20260506174035 | 42 | 303 | 11.3 | 0.0 | 0.00 | 0.00 | 0.00 | 52 | 1015.9 |
| 20260506173510 | 43 | 333 | 10.4 | 0.0 | 0.00 | 0.00 | 0.00 | 53 | 1015.9 |
| 20260506173046 | 43 | 304 | 12.2 | 0.0 | 0.00 | 0.00 | 0.00 | 50 | 1016.1 |
| 20260506172519 | 42 | 309 | 12.2 | 0.0 | 0.00 | 0.00 | 0.00 | 52 | 1016.1 |
| 20260506172052 | 42 | 315 | 13.0 | 0.0 | 0.00 | 0.00 | 0.00 | 51 | 1016.1 |
| 20260506171550 | 42 | 322 | 13.0 | 0.0 | 0.00 | 0.00 | 0.00 | 52 | 1015.9 |
| 20260506171059 | 42 | 314 | 11.3 | 0.0 | 0.00 | 0.00 | 0.00 | 52 | 1015.9 |
| 20260506171001 | 42 | 309 | 11.3 | 0.0 | 0.00 | 0.00 | 0.00 | 51 | 1015.9 |
| 20260506170524 | 42 | 283 | 11.3 | 0.0 | 0.00 | 0.00 | 0.00 | 52 | 1015.9 |
| 20260506170005 | 42 | 330 | 12.2 | 0.0 | 0.00 | 0.00 | 0.00 | 54 | 1016.1 |
| 20260506165533 | 42 | 321 | 11.3 | 0.0 | 0.00 | 0.00 | 0.00 | 52 | 1016.1 |
| 20260506165051 | 42 | 318 | 10.4 | 0.0 | 0.00 | 0.00 | 0.00 | 53 | 1016.1 |
| 20260506164535 | 42 | 298 | 10.4 | 0.0 | 0.00 | 0.00 | 0.00 | 56 | 1016.1 |
| 20260506164019 | 42 | 280 | 11.3 | 0.0 | 0.00 | 0.00 | 0.00 | 52 | 1016.1 |
| 20260506163553 | 42 | 267 | 11.3 | 0.0 | 0.00 | 0.00 | 0.00 | 53 | 1016.1 |
| 20260506163038 | 41 | 294 | 11.3 | 0.0 | 0.00 | 0.00 | 0.00 | 51 | 1016.3 |
| 20260506162546 | 41 | 282 | 11.3 | 0.0 | 0.00 | 0.00 | 0.00 | 52 | 1016.3 |
| 20260506162037 | 41 | 275 | 10.4 | 0.0 | 0.00 | 0.00 | 0.00 | 52 | 1016.3 |
| 20260506161559 | 41 | 319 | 9.6 | 0.0 | 0.00 | 0.00 | 0.00 | 53 | 1016.2 |
| 20260506161037 | 41 | 270 | 11.3 | 0.0 | 0.00 | 0.00 | 0.00 | 53 | 1016.2 |
| 20260506160553 | 41 | 309 | 11.3 | 0.0 | 0.00 | 0.00 | 0.00 | 52 | 1016.2 |
| 20260506160037 | 41 | 301 | 11.3 | 0.0 | 0.00 | 0.00 | 0.00 | 51 | 1016.3 |
| 20260506155558 | 41 | 292 | 11.3 | 0.0 | 0.00 | 0.00 | 0.00 | 54 | 1016.3 |
| 20260506155501 | 41 | 269 | 11.3 | 0.0 | 0.00 | 0.00 | 0.00 | 54 | 1016.3 |
| 20260506155025 | 42 | 280 | 12.2 | 0.0 | 0.00 | 0.00 | 0.00 | 51 | 1016.3 |
| 20260506154516 | 42 | 273 | 11.3 | 0.0 | 0.00 | 0.00 | 0.00 | 53 | 1016.4 |
| 20260506154049 | 41 | 326 | 10.4 | 0.0 | 0.00 | 0.00 | 0.00 | 52 | 1016.4 |
| 20260506153516 | 41 | 271 | 10.4 | 0.0 | 0.00 | 0.00 | 0.00 | 55 | 1016.4 |
| 20260506153052 | 41 | 268 | 12.2 | 0.0 | 0.00 | 0.00 | 0.00 | 54 | 1016.2 |
| 20260506152533 | 41 | 298 | 12.2 | 0.0 | 0.00 | 0.00 | 0.00 | 54 | 1016.2 |
| 20260506152011 | 40 | 298 | 11.3 | 0.0 | 0.00 | 0.00 | 0.00 | 56 | 1016.2 |
| 20260506151539 | 40 | 284 | 11.3 | 0.0 | 0.00 | 0.00 | 0.00 | 54 | 1016.3 |
| 20260506151019 | 40 | 314 | 10.4 | 0.0 | 0.00 | 0.00 | 0.00 | 55 | 1016.3 |
| 20260506150601 | 40 | 300 | 9.6 | 0.0 | 0.00 | 0.00 | 0.00 | 56 | 1016.3 |
| 20260506150502 | 40 | 293 | 10.4 | 0.0 | 0.00 | 0.00 | 0.00 | 56 | 1016.3 |
| 20260506150025 | 40 | 299 | 10.4 | 0.0 | 0.00 | 0.00 | 0.00 | 56 | 1016.3 |
| 20260506145511 | 40 | 319 | 11.3 | 0.0 | 0.00 | 0.00 | 0.00 | 56 | 1016.3 |
| 20260506145046 | 39 | 344 | 10.4 | 0.0 | 0.00 | 0.00 | 0.00 | 57 | 1016.3 |
| 20260506144510 | 39 | 302 | 8.7 | 0.0 | 0.00 | 0.00 | 0.00 | 58 | 1016.4 |
| 20260506144036 | 39 | 315 | 8.7 | 0.0 | 0.00 | 0.00 | 0.00 | 58 | 1016.4 |
| 20260506143516 | 39 | 288 | 9.6 | 0.0 | 0.00 | 0.00 | 0.00 | 60 | 1016.4 |
| 20260506143039 | 39 | 303 | 9.6 | 0.0 | 0.00 | 0.00 | 0.00 | 58 | 1016.5 |
| 20260506142521 | 38 | 327 | 9.6 | 0.0 | 0.00 | 0.00 | 0.00 | 57 | 1016.5 |
| 20260506142052 | 38 | 290 | 9.6 | 0.0 | 0.00 | 0.00 | 0.00 | 58 | 1016.5 |
| 20260506141538 | 38 | 300 | 8.7 | 0.0 | 0.00 | 0.00 | 0.00 | 58 | 1016.4 |
| 20260506141013 | 38 | 313 | 8.7 | 0.0 | 0.00 | 0.00 | 0.00 | 58 | 1016.4 |
| 20260506140552 | 38 | 274 | 7.8 | 0.0 | 0.00 | 0.00 | 0.00 | 59 | 1016.4 |
| 20260506140016 | 37 | 316 | 9.6 | 0.0 | 0.00 | 0.00 | 0.00 | 59 | 1016.3 |
| 20260506135555 | 37 | 342 | 10.4 | 0.0 | 0.00 | 0.00 | 0.00 | 60 | 1016.3 |
| 20260506135020 | 37 | 323 | 9.6 | 0.0 | 0.00 | 0.00 | 0.00 | 60 | 1016.3 |
| 20260506134558 | 37 | 310 | 7.8 | 0.0 | 0.00 | 0.00 | 0.00 | 61 | 1016.3 |
| 20260506134501 | 37 | 294 | 7.8 | 0.0 | 0.00 | 0.00 | 0.00 | 61 | 1016.3 |
| 20260506134022 | 37 | 305 | 7.0 | 0.0 | 0.00 | 0.00 | 0.00 | 62 | 1016.3 |
| 20260506133601 | 37 | 284 | 7.0 | 0.0 | 0.00 | 0.00 | 0.00 | 62 | 1016.3 |
| 20260506133038 | 37 | 284 | 5.2 | 0.0 | 0.00 | 0.00 | 0.00 | 64 | 1016.2 |
| 20260506132556 | 36 | 284 | 4.3 | 0.0 | 0.00 | 0.00 | 0.00 | 65 | 1016.2 |
| 20260506132040 | 36 | 305 | 5.2 | 0.0 | 0.00 | 0.00 | 0.00 | 66 | 1016.2 |
| 20260506131521 | 36 | 285 | 4.3 | 0.0 | 0.00 | 0.00 | 0.00 | 66 | 1016.1 |
| 20260506131057 | 36 | 286 | 4.3 | 0.0 | 0.00 | 0.00 | 0.00 | 67 | 1016.1 |
| 20260506130539 | 36 | 250 | 4.3 | 0.0 | 0.00 | 0.00 | 0.00 | 65 | 1016.1 |
| 20260506130017 | 36 | 274 | 4.3 | 0.0 | 0.00 | 0.00 | 0.00 | 66 | 1016.1 |
| 20260506125538 | 35 | 289 | 4.3 | 0.0 | 0.00 | 0.00 | 0.00 | 66 | 1016.1 |
| 20260506125016 | 35 | 281 | 3.5 | 0.0 | 0.00 | 0.00 | 0.00 | 66 | 1016.1 |
| 20260506124600 | 35 | 272 | 3.5 | 0.0 | 0.00 | 0.00 | 0.00 | 68 | 1016.0 |
| 20260506124027 | 35 | 281 | 2.6 | 0.0 | 0.00 | 0.00 | 0.00 | 70 | 1016.0 |
| 20260506123600 | 34 | 288 | 2.6 | 0.0 | 0.00 | 0.00 | 0.00 | 71 | 1016.0 |
| 20260506123505 | 34 | 259 | 2.6 | 0.0 | 0.00 | 0.00 | 0.00 | 71 | 1016.0 |
| 20260506123030 | 34 | 268 | 2.6 | 0.0 | 0.00 | 0.00 | 0.00 | 72 | 1015.7 |
| 20260506122510 | 34 | 259 | 3.5 | 0.0 | 0.00 | 0.00 | 0.00 | 73 | 1015.7 |
| 20260506122030 | 34 | 259 | 3.5 | 0.0 | 0.00 | 0.00 | 0.00 | 73 | 1015.7 |
| 20260506121508 | 34 | 249 | 4.3 | 0.0 | 0.00 | 0.00 | 0.00 | 73 | 1015.5 |
| 20260506121029 | 33 | 248 | 4.3 | 0.0 | 0.00 | 0.00 | 0.00 | 74 | 1015.5 |
| 20260506120508 | 33 | 246 | 3.5 | 0.0 | 0.00 | 0.00 | 0.00 | 74 | 1015.5 |
| 20260506120033 | 33 | 252 | 3.5 | 0.0 | 0.00 | 0.00 | 0.00 | 74 | 1015.4 |
| 20260506115547 | 33 | 253 | 3.5 | 0.0 | 0.00 | 0.00 | 0.00 | 73 | 1015.4 |
| 20260506115031 | 33 | 257 | 2.6 | 0.0 | 0.00 | 0.00 | 0.00 | 73 | 1015.4 |
| 20260506114556 | 33 | 270 | 2.6 | 0.0 | 0.00 | 0.00 | 0.00 | 72 | 1015.1 |
| 20260506114028 | 33 | 271 | 2.6 | 0.0 | 0.00 | 0.00 | 0.00 | 73 | 1015.1 |
| 20260506113558 | 32 | 279 | 2.6 | 0.0 | 0.00 | 0.00 | 0.00 | 72 | 1015.1 |
| 20260506113502 | 32 | 279 | 2.6 | 0.0 | 0.00 | 0.00 | 0.00 | 72 | 1015.1 |
| 20260506113041 | 32 | 279 | 2.6 | 0.0 | 0.00 | 0.00 | 0.00 | 72 | 1015.0 |
| 20260506112526 | 32 | 284 | 2.6 | 0.0 | 0.00 | 0.00 | 0.00 | 72 | 1015.0 |
| 20260506112056 | 32 | 289 | 1.7 | 0.0 | 0.00 | 0.00 | 0.00 | 72 | 1015.0 |
| 20260506111543 | 32 | 289 | 2.6 | 0.0 | 0.00 | 0.00 | 0.00 | 71 | 1015.0 |
| 20260506111009 | 32 | 284 | 2.6 | 0.0 | 0.00 | 0.00 | 0.00 | 71 | 1015.0 |
| 20260506110533 | 32 | 284 | 2.6 | 0.0 | 0.00 | 0.00 | 0.00 | 71 | 1015.0 |
| 20260506110013 | 32 | 283 | 2.6 | 0.0 | 0.00 | 0.00 | 0.00 | 71 | 1014.7 |
| 20260506105537 | 32 | 286 | 2.6 | 0.0 | 0.00 | 0.00 | 0.00 | 71 | 1014.7 |
| 20260506105015 | 32 | 287 | 3.5 | 0.0 | 0.00 | 0.00 | 0.00 | 71 | 1014.7 |
| 20260506104543 | 32 | 290 | 3.5 | 0.0 | 0.00 | 0.00 | 0.00 | 71 | 1014.6 |
| 20260506104056 | 32 | 279 | 3.5 | 0.0 | 0.00 | 0.00 | 0.00 | 71 | 1014.6 |
| 20260506103540 | 32 | 277 | 2.6 | 0.0 | 0.00 | 0.00 | 0.00 | 72 | 1014.6 |
| 20260506103023 | 32 | 283 | 2.6 | 0.0 | 0.00 | 0.00 | 0.00 | 71 | 1014.6 |
| 20260506102547 | 32 | 288 | 2.6 | 0.0 | 0.00 | 0.00 | 0.00 | 71 | 1014.6 |
| 20260506102011 | 32 | 297 | 2.6 | 0.0 | 0.00 | 0.00 | 0.00 | 71 | 1014.6 |
| 20260506101547 | 32 | 297 | 2.6 | 0.0 | 0.00 | 0.00 | 0.00 | 71 | 1014.5 |
| 20260506101024 | 32 | 282 | 1.7 | 0.0 | 0.00 | 0.00 | 0.00 | 71 | 1014.5 |
| 20260506100506 | 32 | 301 | 1.7 | 0.0 | 0.00 | 0.00 | 0.00 | 70 | 1014.5 |
| 20260506100041 | 32 | 312 | 3.5 | 0.0 | 0.00 | 0.00 | 0.00 | 70 | 1014.4 |
| 20260506095524 | 33 | 321 | 5.2 | 0.0 | 0.00 | 0.00 | 0.00 | 69 | 1014.4 |
| 20260506095044 | 33 | 318 | 6.1 | 0.0 | 0.00 | 0.00 | 0.00 | 69 | 1014.4 |
| 20260506094529 | 33 | 320 | 4.3 | 0.0 | 0.00 | 0.00 | 0.00 | 69 | 1014.5 |
| 20260506094050 | 34 | 312 | 2.6 | 0.0 | 0.00 | 0.00 | 0.00 | 68 | 1014.5 |
| 20260506093534 | 35 | 307 | 1.7 | 0.0 | 0.00 | 0.00 | 0.00 | 68 | 1014.5 |
| 20260506093013 | 35 | 294 | 1.7 | 0.0 | 0.00 | 0.00 | 0.00 | 68 | 1014.8 |
| 20260506092548 | 35 | 273 | 2.6 | 0.0 | 0.00 | 0.00 | 0.00 | 68 | 1014.8 |
| 20260506092012 | 35 | 295 | 2.6 | 0.0 | 0.00 | 0.00 | 0.00 | 69 | 1014.8 |
| 20260506091535 | 35 | 286 | 2.6 | 0.0 | 0.00 | 0.00 | 0.00 | 69 | 1014.3 |
| 20260506091017 | 35 | 296 | 2.6 | 0.0 | 0.00 | 0.00 | 0.00 | 69 | 1014.3 |
| 20260506090536 | 35 | 317 | 4.3 | 0.0 | 0.00 | 0.00 | 0.00 | 68 | 1014.3 |
| 20260506090108 | 35 | 315 | 4.3 | 0.0 | 0.00 | 0.00 | 0.00 | 69 | 1014.1 |
| 20260506085538 | 35 | 326 | 4.3 | 0.0 | 0.00 | 0.00 | 0.00 | 69 | 1014.1 |
| 20260506085056 | 35 | 307 | 4.3 | 0.0 | 0.00 | 0.00 | 0.00 | 69 | 1014.1 |
| 20260506084525 | 35 | 330 | 4.3 | 0.0 | 0.00 | 0.00 | 0.00 | 69 | 1013.6 |
| 20260506084007 | 35 | 318 | 4.3 | 0.0 | 0.00 | 0.00 | 0.00 | 69 | 1013.6 |
| 20260506083533 | 35 | 317 | 4.3 | 0.0 | 0.00 | 0.00 | 0.00 | 69 | 1013.6 |
| 20260506083012 | 35 | 319 | 3.5 | 0.0 | 0.00 | 0.00 | 0.00 | 69 | 1013.6 |
| 20260506082537 | 35 | 325 | 3.5 | 0.0 | 0.00 | 0.00 | 0.00 | 68 | 1013.6 |
| 20260506082018 | 35 | 323 | 3.5 | 0.0 | 0.00 | 0.00 | 0.00 | 68 | 1013.6 |
| 20260506081550 | 35 | 318 | 3.5 | 0.0 | 0.00 | 0.00 | 0.00 | 68 | 1013.9 |
| 20260506081035 | 35 | 315 | 2.6 | 0.0 | 0.00 | 0.00 | 0.00 | 68 | 1013.9 |
| 20260506080548 | 35 | 313 | 2.6 | 0.0 | 0.00 | 0.00 | 0.00 | 68 | 1013.9 |
| 20260506073505 | 35 | 317 | 1.7 | 0.0 | 0.00 | 0.00 | 0.00 | 67 | 1014.1 |
| 20260506073028 | 36 | 317 | 1.7 | 0.0 | 0.00 | 0.00 | 0.00 | 67 | 1013.8 |
| 20260506072510 | 36 | 318 | 1.7 | 0.0 | 0.00 | 0.00 | 0.00 | 66 | 1013.8 |
| 20260506072033 | 36 | 321 | 2.6 | 0.0 | 0.00 | 0.00 | 0.00 | 66 | 1013.8 |
| 20260506071557 | 36 | 322 | 4.3 | 0.0 | 0.00 | 0.00 | 0.00 | 66 | 1013.8 |
| 20260506071044 | 36 | 318 | 5.2 | 0.0 | 0.00 | 0.00 | 0.00 | 65 | 1013.8 |
| 20260506070601 | 36 | 338 | 5.2 | 0.0 | 0.00 | 0.00 | 0.00 | 66 | 1013.8 |
| 20260506070509 | 36 | 336 | 5.2 | 0.0 | 0.00 | 0.00 | 0.00 | 66 | 1013.8 |
| 20260506062008 | 36 | 322 | 5.2 | 0.0 | 0.00 | 0.00 | 0.00 | 65 | 1013.6 |
| 20260506061532 | 36 | 329 | 4.3 | 0.0 | 0.00 | 0.00 | 0.00 | 66 | 1013.5 |
| 20260506061050 | 37 | 336 | 4.3 | 0.0 | 0.00 | 0.00 | 0.00 | 66 | 1013.5 |
| 20260506060532 | 37 | 321 | 5.2 | 0.0 | 0.00 | 0.00 | 0.00 | 67 | 1013.5 |
| 20260506051008 | 37 | 315 | 2.6 | 0.0 | 0.00 | 0.00 | 0.00 | 65 | 1013.7 |
| 20260506050538 | 37 | 315 | 2.6 | 0.0 | 0.00 | 0.00 | 0.00 | 65 | 1013.7 |
| 20260506045012 | 37 | 314 | 2.6 | 0.0 | 0.00 | 0.00 | 0.00 | 64 | 1013.6 |
| 20260506044546 | 37 | 312 | 1.7 | 0.0 | 0.00 | 0.00 | 0.00 | 64 | 1013.7 |
| 20260506044036 | 37 | 312 | 1.7 | 0.0 | 0.00 | 0.00 | 0.00 | 64 | 1013.7 |
| 20260506043600 | 37 | 311 | 1.7 | 0.0 | 0.00 | 0.00 | 0.00 | 64 | 1013.7 |
| 20260506043038 | 37 | 315 | 0.9 | 0.0 | 0.00 | 0.00 | 0.00 | 63 | 1013.7 |
| 20260506042509 | 37 | 315 | 0.9 | 0.0 | 0.00 | 0.00 | 0.00 | 63 | 1013.7 |
| 20260506042047 | 37 | 315 | 1.7 | 0.0 | 0.00 | 0.00 | 0.00 | 62 | 1013.7 |
| 20260506041514 | 37 | 313 | 2.6 | 0.0 | 0.00 | 0.00 | 0.00 | 62 | 1013.7 |
| 20260506041049 | 37 | 319 | 2.6 | 0.0 | 0.00 | 0.00 | 0.00 | 62 | 1013.7 |
| 20260506040513 | 37 | 316 | 1.7 | 0.0 | 0.00 | 0.00 | 0.00 | 62 | 1013.7 |
| 20260506040053 | 37 | 316 | 1.7 | 0.0 | 0.00 | 0.00 | 0.00 | 61 | 1013.3 |
| 20260506035515 | 37 | 316 | 1.7 | 0.0 | 0.00 | 0.00 | 0.00 | 61 | 1013.3 |
| 20260506035041 | 37 | 315 | 2.6 | 0.0 | 0.00 | 0.00 | 0.00 | 61 | 1013.3 |
| 20260506034527 | 37 | 315 | 1.7 | 0.0 | 0.00 | 0.00 | 0.00 | 61 | 1013.2 |
| 20260506034058 | 37 | 315 | 1.7 | 0.0 | 0.00 | 0.00 | 0.00 | 61 | 1013.2 |
| 20260506034002 | 37 | 315 | 1.7 | 0.0 | 0.00 | 0.00 | 0.00 | 61 | 1013.2 |
| 20260506033544 | 37 | 315 | 1.7 | 0.0 | 0.00 | 0.00 | 0.00 | 61 | 1013.2 |
| 20260506033015 | 37 | 315 | 2.6 | 0.0 | 0.00 | 0.00 | 0.00 | 61 | 1013.1 |
| 20260506032547 | 37 | 315 | 2.6 | 0.0 | 0.00 | 0.00 | 0.00 | 61 | 1013.1 |
| 20260506032027 | 37 | 315 | 3.5 | 0.0 | 0.00 | 0.00 | 0.00 | 61 | 1013.1 |
| 20260506031509 | 37 | 318 | 3.5 | 0.0 | 0.00 | 0.00 | 0.00 | 60 | 1013.1 |
| 20260506031047 | 37 | 319 | 3.5 | 0.0 | 0.00 | 0.00 | 0.00 | 59 | 1013.1 |
| 20260506030514 | 37 | 319 | 4.3 | 0.0 | 0.00 | 0.00 | 0.00 | 59 | 1013.1 |
| 20260506030047 | 37 | 327 | 4.3 | 0.0 | 0.00 | 0.00 | 0.00 | 59 | 1012.7 |
| 20260506025534 | 38 | 329 | 4.3 | 0.0 | 0.00 | 0.00 | 0.00 | 59 | 1012.7 |
| 20260506025053 | 37 | 331 | 4.3 | 0.0 | 0.00 | 0.00 | 0.00 | 59 | 1012.7 |
| 20260506024525 | 37 | 327 | 4.3 | 0.0 | 0.00 | 0.00 | 0.00 | 59 | 1012.6 |
| 20260506024005 | 37 | 321 | 4.3 | 0.0 | 0.00 | 0.00 | 0.00 | 59 | 1012.6 |
| 20260506023525 | 37 | 319 | 3.5 | 0.0 | 0.00 | 0.00 | 0.00 | 59 | 1012.6 |
| 20260506023058 | 37 | 315 | 3.5 | 0.0 | 0.00 | 0.00 | 0.00 | 58 | 1012.3 |
| 20260506023007 | 37 | 318 | 3.5 | 0.0 | 0.00 | 0.00 | 0.00 | 58 | 1012.3 |
| 20260506022548 | 37 | 319 | 4.3 | 0.0 | 0.00 | 0.00 | 0.00 | 57 | 1012.3 |
| 20260506022014 | 38 | 321 | 5.2 | 0.0 | 0.00 | 0.00 | 0.00 | 57 | 1012.3 |
| 20260506021541 | 38 | 327 | 5.2 | 0.0 | 0.00 | 0.00 | 0.00 | 57 | 1011.9 |
| 20260506021023 | 38 | 325 | 6.1 | 0.0 | 0.00 | 0.00 | 0.00 | 56 | 1011.9 |
| 20260506020546 | 38 | 321 | 6.1 | 0.0 | 0.00 | 0.00 | 0.00 | 56 | 1011.9 |
| 20260506020029 | 39 | 327 | 6.1 | 0.0 | 0.00 | 0.00 | 0.00 | 56 | 1011.7 |
| 20260506015557 | 39 | 325 | 5.2 | 0.0 | 0.00 | 0.00 | 0.00 | 55 | 1011.7 |
| 20260506015027 | 39 | 327 | 4.3 | 0.0 | 0.00 | 0.00 | 0.00 | 54 | 1011.7 |
| 20260506014549 | 40 | 318 | 6.1 | 0.0 | 0.00 | 0.00 | 0.00 | 54 | 1011.4 |
| 20260506014032 | 40 | 309 | 7.8 | 0.0 | 0.00 | 0.00 | 0.00 | 53 | 1011.4 |
| 20260506013551 | 41 | 320 | 7.8 | 0.0 | 0.00 | 0.00 | 0.00 | 52 | 1011.4 |
| 20260506013030 | 41 | 305 | 7.0 | 0.0 | 0.00 | 0.00 | 0.00 | 52 | 1011.5 |